GFSFLT1_925_temp_132.txt.gz
Temp
3 3 2 2 1 1 1 1 2 2 3 5 7 6 6 6 6 8 9 8 9 9 10 12 13 14 15 17 15 16 16 16
3 2 1 1 0 -0 -1 -1 -0 -0 -0 -0 1 2 2 3 3 4 5 7 7 8 9 10 12 12 12 14 14 15 15 16
3 1 0 -0 -1 -1 -1 -1 -1 -1 -1 -1 -1 -1 1 1 2 2 2 3 4 5 6 7 10 10 11 13 14 15 15 15
1 1 -0 -1 -2 -2 -1 -1 -0 -1 -2 -2 -2 -2 -1 -1 -1 -0 1 0 2 4 5 5 7 8 9 11 13 14 15 15
1 -0 -1 -2 -2 -1 -1 -1 -1 -2 -2 -2 -2 -1 -1 -1 -2 -1 -1 0 0 2 3 4 4 6 7 9 12 14 14 15
-1 -1 -2 -2 -2 -1 -2 -1 -2 -2 -2 -2 -2 -2 -2 -1 -1 -1 -0 0 -0 1 2 3 3 4 5 6 9 11 14 15
-1 -2 -1 -1 -2 -2 -3 -2 -2 -2 -3 -2 -2 -2 -1 -1 -1 -0 0 1 1 1 2 3 3 3 4 6 8 10 11 13
-3 -2 -2 -2 -3 -3 -4 -3 -3 -4 -4 -3 -3 -3 -2 -2 -1 -0 0 1 1 1 2 2 3 3 3 4 5 8 10 13
-3 -2 -3 -3 -4 -4 -4 -4 -4 -4 -4 -4 -4 -3 -3 -2 -1 -1 -0 0 1 2 2 2 3 3 3 3 4 5 8 8
-3 -2 -4 -4 -4 -5 -5 -5 -5 -5 -5 -4 -4 -4 -3 -3 -2 -2 -1 -1 0 1 1 2 3 3 4 4 4 5 7 8
-4 -4 -4 -4 -5 -5 -5 -5 -5 -5 -5 -5 -5 -5 -4 -3 -3 -3 -2 -2 -1 -1 -0 1 2 5 4 4 5 5 6 7
-5 -5 -4 -5 -5 -5 -5 -5 -6 -6 -6 -6 -6 -5 -5 -5 -5 -4 -4 -3 -2 -2 -1 -1 -0 2 3 5 5 6 7 7
-5 -5 -5 -5 -5 -5 -6 -6 -6 -6 -6 -6 -6 -6 -6 -5 -6 -6 -5 -4 -3 -3 -2 -2 -2 -1 1 2 4 6 8 8
-6 -5 -5 -5 -5 -6 -6 -6 -6 -7 -7 -7 -7 -7 -7 -7 -6 -6 -6 -5 -4 -3 -3 -3 -3 -2 -2 -1 0 1 1 2
-5 -5 -5 -5 -5 -6 -6 -6 -6 -7 -8 -8 -8 -8 -8 -7 -7 -7 -7 -6 -5 -4 -4 -3 -3 -3 -3 -3 -3 -2 -1 -1
-4 -5 -5 -5 -5 -6 -6 -6 -7 -7 -8 -8 -9 -9 -9 -9 -8 -8 -7 -7 -6 -5 -5 -5 -4 -4 -4 -4 -4 -4 -4 -3
-3 -4 -4 -5 -5 -6 -6 -7 -7 -7 -8 -9 -8 -9 -9 -9 -9 -9 -9 -8 -7 -7 -6 -6 -5 -5 -5 -5 -5 -5 -5 -5
-3 -4 -5 -6 -6 -6 -7 -7 -7 -8 -8 -8 -9 -9 -9 -9 -10 -9 -9 -9 -8 -8 -8 -7 -6 -6 -5 -6 -6 -7 -6 -6
-4 -5 -6 -6 -6 -6 -6 -7 -7 -8 -8 -9 -9 -9 -9 -9 -9 -10 -10 -10 -9 -9 -9 -9 -7 -7 -7 -7 -7 -8 -8 -7

GFSFLT1_925_temp_138.txt.gz
Temp
9 8 7 7 7 6 6 6 6 5 6 7 7 8 8 7 8 7 6 6 6 7 8 9 9 11 13 14 14 15 15 14
10 8 8 7 7 6 6 6 5 5 6 6 6 7 7 7 6 6 5 5 5 5 7 8 9 10 11 12 14 14 14 15
10 9 8 7 6 6 5 5 5 5 5 4 5 5 6 6 6 6 5 5 4 5 5 6 7 8 9 10 11 13 15 16
11 9 8 7 6 5 4 4 4 4 3 4 4 4 5 6 6 5 5 4 3 3 4 5 5 6 8 9 10 12 14 16
10 8 8 6 5 4 3 3 3 3 2 2 2 2 3 3 3 3 3 2 2 2 2 3 4 5 7 8 9 10 11 14
9 7 6 6 5 4 3 3 3 2 1 1 1 1 1 1 1 1 1 2 2 2 2 2 2 3 4 6 7 8 10 12
8 7 6 6 5 4 3 2 2 1 1 -0 -1 -1 -1 -1 -0 -0 0 0 1 1 1 2 2 2 3 4 4 5 6 9
8 8 7 5 4 3 3 2 2 1 -0 -1 -1 -2 -2 -2 -1 -1 -1 -1 -0 -1 -0 0 1 1 2 3 4 4 4 5
8 6 5 4 3 3 2 1 1 -0 -1 -1 -2 -2 -3 -3 -3 -2 -2 -2 -2 -2 -1 -1 0 1 2 2 3 3 4 4
7 5 4 3 3 2 1 1 0 -1 -1 -2 -2 -3 -4 -4 -4 -3 -3 -3 -2 -2 -2 -2 -1 -0 1 2 2 3 4 4
5 4 2 2 1 1 -1 -2 -2 -2 -2 -2 -3 -4 -4 -5 -4 -4 -4 -4 -3 -3 -3 -2 -2 -1 -0 2 4 4 4 5
2 -0 1 -1 -2 -2 -3 -4 -4 -3 -3 -3 -4 -5 -6 -6 -5 -5 -4 -4 -5 -4 -4 -3 -3 -2 -2 -1 0 3 2 2
2 -2 -3 -3 -4 -4 -5 -5 -5 -5 -4 -4 -5 -6 -6 -6 -6 -6 -5 -5 -5 -5 -4 -4 -4 -4 -3 -3 -2 -2 -1 -1
3 -0 -2 -3 -3 -4 -5 -6 -6 -6 -6 -6 -6 -6 -6 -7 -6 -6 -6 -6 -5 -5 -5 -5 -5 -5 -5 -4 -4 -3 -3 -3
3 2 -0 -2 -4 -5 -5 -6 -6 -7 -7 -7 -7 -7 -7 -7 -6 -6 -6 -6 -6 -5 -5 -5 -5 -6 -5 -5 -5 -5 -5 -5
3 2 0 -1 -2 -3 -4 -5 -6 -7 -7 -7 -7 -7 -7 -7 -6 -6 -6 -7 -7 -6 -6 -6 -6 -6 -6 -6 -5 -6 -5 -5
2 1 1 0 -1 -2 -3 -4 -6 -6 -7 -8 -8 -8 -8 -7 -7 -7 -7 -7 -7 -7 -7 -7 -7 -7 -7 -7 -7 -6 -6 -6
3 2 1 -0 -1 -2 -3 -4 -5 -5 -7 -8 -8 -8 -8 -8 -8 -8 -7 -8 -8 -8 -8 -7 -8 -8 -7 -7 -7 -8 -7 -7
3 1 0 -1 -1 -2 -3 -3 -4 -5 -5 -6 -8 -8 -8 -8 -8 -8 -8 -7 -8 -8 -8 -8 -8 -8 -8 -8 -8 -8 -8 -9

GFSFLT1_925_temp_141.txt.gz
Temp
14 13 12 12 11 10 10 10 9 9 10 10 11 11 11 11 11 11 10 9 8 8 9 9 10 11 12 14 15 16 17 18
14 12 12 12 11 10 9 9 9 8 9 9 9 10 10 10 10 9 9 8 8 7 8 8 9 10 11 12 13 14 16 17
14 13 12 11 11 9 9 8 8 8 7 7 7 7 8 8 9 9 8 8 7 6 7 7 8 9 9 10 11 12 14 16
15 13 12 11 10 9 8 8 7 7 6 6 6 6 7 7 7 6 6 5 5 5 4 4 4 5 7 9 10 11 13 14
15 13 12 11 9 8 7 7 7 6 5 5 4 5 5 4 4 4 3 3 3 3 2 2 3 3 4 5 7 9 11 13
14 12 11 10 9 8 7 7 7 6 4 4 3 3 3 2 2 1 1 1 1 1 1 1 1 2 3 3 4 5 6 8
13 11 10 10 9 8 7 7 6 5 4 3 2 2 1 0 0 -0 -0 -0 0 0 0 -0 1 1 2 3 3 4 4 6
13 12 11 9 8 7 7 6 6 4 3 3 2 1 -0 -1 -1 -1 -1 -1 -1 -1 -1 -1 -0 0 1 2 2 3 4 5
13 11 10 9 8 7 6 5 5 3 2 2 1 -0 -1 -2 -2 -2 -2 -2 -2 -2 -2 -2 -2 -1 -0 1 2 3 3 4
13 10 9 8 7 6 4 4 3 2 2 1 0 -1 -2 -3 -3 -3 -3 -3 -3 -3 -2 -2 -2 -2 -1 -0 1 2 3 4
11 9 7 6 5 4 2 1 1 1 1 0 -1 -2 -3 -4 -4 -4 -4 -3 -3 -3 -3 -4 -3 -3 -2 -1 -0 4 3 3
9 6 5 3 2 1 -1 -2 -1 -1 -0 -1 -3 -4 -4 -4 -4 -4 -5 -4 -4 -4 -4 -4 -4 -4 -3 -2 -2 -1 -0 -0
7 -0 -1 -2 -3 -3 -3 -3 -3 -3 -3 -3 -4 -4 -5 -5 -5 -4 -5 -5 -5 -4 -4 -5 -5 -4 -4 -4 -4 -3 -3 -2
7 2 -1 -2 -1 -4 -4 -4 -5 -5 -5 -5 -5 -5 -5 -5 -5 -4 -4 -5 -4 -5 -5 -5 -5 -5 -4 -5 -4 -4 -4 -4
8 5 3 1 -2 -3 -4 -4 -5 -6 -6 -5 -6 -6 -5 -5 -5 -4 -4 -5 -4 -4 -5 -5 -6 -6 -5 -5 -5 -5 -4 -5
7 6 4 2 1 -0 -1 -3 -5 -6 -6 -6 -6 -6 -6 -5 -5 -5 -5 -5 -6 -5 -5 -5 -5 -6 -6 -6 -6 -6 -6 -6
7 6 4 4 2 1 -0 -2 -4 -5 -6 -7 -7 -7 -6 -6 -6 -5 -6 -6 -6 -7 -6 -7 -7 -6 -6 -6 -7 -7 -7 -7
7 6 5 4 3 1 1 -2 -3 -3 -5 -6 -7 -7 -7 -7 -6 -6 -6 -6 -6 -7 -7 -7 -8 -7 -6 -6 -7 -7 -8 -9
7 5 4 3 3 2 1 0 -1 -2 -3 -4 -6 -7 -7 -7 -6 -6 -6 -6 -6 -7 -8 -8 -8 -8 -7 -6 -6 -7 -8 -9

GFSFLT1_925_temp_144.txt.gz
Temp
15 14 13 13 12 11 10 10 9 9 10 9 9 9 9 9 10 10 10 9 9 8 8 8 8 8 9 10 11 12 13 14
15 14 13 13 12 11 10 10 9 9 8 7 8 8 8 8 8 9 8 7 7 6 6 6 6 7 7 8 9 10 11 12
15 15 13 12 11 10 9 9 9 8 7 7 7 7 7 7 7 6 6 5 4 3 4 4 4 4 4 5 6 8 10 11
16 15 13 12 11 10 9 8 8 7 6 6 5 5 6 5 4 4 3 2 2 2 2 2 2 3 3 4 4 5 7 9
16 15 13 12 10 9 9 8 8 7 6 5 4 4 4 3 2 1 1 0 0 1 1 1 0 1 1 2 4 4 5 6
16 14 13 12 10 9 8 8 8 6 5 4 3 3 2 1 1 0 -0 -1 -1 -0 -0 -1 -1 -0 0 1 2 3 4 4
15 13 12 12 10 9 8 8 7 5 4 4 3 2 1 0 -0 -1 -1 -1 -1 -1 -1 -1 -1 -1 -0 0 1 2 3 4
15 14 13 11 9 8 8 7 7 5 4 3 2 1 -0 -1 -2 -2 -2 -2 -2 -2 -2 -2 -2 -2 -1 -1 0 1 2 3
15 14 12 10 9 7 6 6 5 4 3 2 1 -0 -1 -2 -3 -3 -3 -3 -3 -3 -3 -3 -3 -2 -2 -1 -0 1 1 2
14 12 10 9 8 6 4 4 3 3 2 1 -0 -1 -2 -3 -3 -3 -4 -4 -4 -3 -4 -4 -3 -3 -3 -2 -1 -0 2 2
14 11 9 8 6 4 1 1 1 1 1 -0 -2 -3 -4 -4 -4 -4 -4 -4 -4 -4 -4 -4 -4 -4 -3 -3 -2 -2 -1 -0
11 9 7 5 2 1 -1 -1 -1 -1 -1 -2 -3 -4 -4 -4 -4 -4 -4 -4 -4 -4 -5 -5 -4 -4 -4 -4 -3 -4 -3 -3
6 -0 1 -0 -2 -2 -2 -2 -3 -3 -3 -4 -4 -4 -5 -4 -4 -4 -4 -4 -4 -5 -5 -5 -5 -5 -4 -4 -4 -4 -4 -4
6 2 -1 -2 -1 -2 -3 -4 -4 -4 -5 -5 -5 -5 -5 -5 -5 -4 -5 -5 -5 -5 -5 -5 -6 -6 -5 -5 -5 -5 -5 -5
8 5 3 0 -1 -3 -3 -4 -5 -5 -5 -5 -6 -5 -5 -5 -5 -5 -5 -6 -6 -6 -6 -6 -5 -6 -6 -6 -7 -7 -6 -6
9 7 5 3 1 -1 -3 -4 -5 -5 -5 -6 -6 -6 -6 -5 -5 -5 -5 -6 -7 -7 -7 -7 -7 -6 -6 -7 -8 -8 -8 -8
9 8 6 4 3 2 0 -2 -4 -4 -6 -6 -6 -6 -6 -6 -5 -5 -6 -7 -7 -8 -8 -8 -7 -6 -5 -6 -8 -9 -9 -9
9 7 6 5 4 2 1 -2 -3 -4 -5 -6 -6 -6 -6 -6 -6 -6 -6 -7 -7 -8 -8 -9 -8 -7 -6 -6 -7 -9 -9 -9
9 7 6 4 3 3 1 -0 -2 -2 -3 -5 -6 -6 -6 -6 -6 -5 -6 -6 -7 -8 -8 -9 -9 -8 -7 -6 -7 -8 -9 -10

GFSFLT1_925_temp_147.txt.gz
Temp
13 13 13 11 11 10 9 9 9 8 9 8 8 8 7 7 7 6 5 5 4 4 4 4 4 4 5 5 5 6 7 9
13 13 12 11 10 10 9 9 8 8 7 6 6 6 6 5 5 4 4 3 2 2 1 2 2 2 3 3 3 4 5 7
13 13 12 11 10 9 9 8 8 7 6 5 5 5 4 4 3 2 2 1 0 0 1 1 1 1 1 2 3 3 4 5
13 12 12 10 10 9 8 8 7 6 5 5 4 3 2 1 1 0 -0 -1 -0 -1 -0 -0 -0 -0 0 1 1 3 3 5
12 12 11 10 9 9 8 8 7 6 5 4 3 2 1 0 -0 -1 -1 -1 -1 -1 -1 -1 -1 -1 -1 -0 1 1 2 3
11 11 11 10 9 8 8 7 6 5 4 3 2 1 -0 -1 -1 -2 -2 -2 -2 -2 -2 -2 -2 -2 -1 -1 -1 -0 1 2
10 12 11 9 9 8 8 7 5 4 3 2 1 -0 -1 -2 -2 -3 -3 -3 -3 -3 -3 -3 -3 -2 -2 -2 -1 -1 -0 1
9 9 9 9 8 7 6 6 4 3 3 1 0 -1 -2 -3 -3 -3 -3 -4 -4 -4 -4 -4 -3 -3 -3 -2 -1 -1 -0 0
9 9 9 8 7 6 5 4 3 2 2 0 -1 -2 -3 -3 -3 -3 -4 -4 -4 -4 -4 -4 -4 -3 -3 -3 -2 -2 -1 0
9 8 8 7 5 4 4 3 2 1 0 -0 -2 -3 -4 -4 -4 -4 -4 -4 -4 -4 -5 -5 -4 -4 -4 -3 -3 -3 -2 -0
8 8 7 5 3 3 2 1 0 -0 -1 -2 -3 -4 -4 -4 -4 -4 -4 -4 -4 -5 -5 -5 -5 -4 -4 -4 -4 -3 -3 -3
6 5 3 2 2 2 0 -1 -1 -2 -2 -3 -4 -4 -4 -4 -4 -5 -5 -5 -5 -5 -5 -6 -6 -5 -5 -5 -5 -5 -5 -5
3 1 1 1 0 -0 -1 -2 -2 -3 -4 -4 -5 -5 -4 -4 -4 -5 -5 -6 -6 -6 -6 -6 -6 -6 -6 -7 -7 -6 -6 -6
1 -1 -2 -1 -1 -2 -2 -3 -3 -4 -4 -5 -5 -5 -5 -5 -5 -5 -6 -6 -7 -6 -6 -6 -6 -7 -7 -8 -8 -8 -7 -7
1 -0 -2 -2 -2 -2 -4 -4 -4 -5 -5 -5 -5 -5 -5 -5 -5 -6 -6 -7 -7 -7 -6 -6 -6 -6 -7 -9 -9 -9 -8 -8
3 1 -1 -1 -2 -3 -3 -4 -5 -5 -6 -6 -6 -6 -5 -5 -6 -6 -7 -7 -8 -8 -7 -6 -6 -6 -7 -8 -9 -9 -9 -9
5 3 1 0 -1 -2 -3 -4 -5 -5 -6 -6 -6 -6 -6 -6 -6 -6 -6 -7 -8 -8 -8 -7 -6 -6 -6 -8 -9 -10 -10 -10
6 4 3 2 1 -1 -2 -3 -4 -5 -6 -6 -6 -6 -6 -6 -6 -6 -6 -7 -7 -8 -8 -8 -7 -7 -6 -7 -9 -9 -9 -10
5 4 3 3 2 1 -1 -3 -4 -4 -5 -6 -6 -6 -6 -6 -6 -6 -6 -6 -7 -8 -8 -8 -8 -7 -7 -8 -9 -9 -9 -9

GFSFLT1_925_temp_153.txt.gz
Temp
10 10 10 10 9 9 8 8 8 8 8 7 7 6 5 4 3 3 2 1 0 -0 -1 -1 -1 -1 -1 -0 0 1 1 1
10 10 9 9 8 8 8 8 7 8 8 7 6 4 4 3 2 1 1 -0 -1 -1 -2 -2 -2 -2 -2 -1 -1 -1 0 1
8 8 9 9 8 8 7 7 7 7 7 6 5 4 2 2 1 1 -0 -1 -1 -2 -2 -3 -3 -3 -2 -2 -2 -1 -0 1
8 7 8 8 8 7 7 7 7 6 5 5 5 4 2 1 1 0 -0 -1 -2 -2 -3 -3 -3 -3 -3 -2 -2 -1 -1 -1
9 7 6 7 7 7 7 6 6 5 4 4 3 1 -0 -2 -2 -1 -1 -2 -3 -3 -3 -4 -4 -4 -3 -3 -2 -2 -2 -1
8 7 7 7 7 7 6 6 5 4 3 2 2 1 -1 -1 -1 -1 -2 -3 -3 -4 -4 -5 -5 -4 -4 -3 -3 -2 -2 -1
8 7 7 6 6 6 5 5 4 3 2 1 1 -0 -1 -1 -2 -3 -3 -4 -4 -4 -5 -5 -5 -4 -4 -4 -3 -3 -2 -2
7 5 4 5 5 5 5 4 3 2 1 1 0 -1 -2 -2 -3 -4 -5 -4 -4 -5 -5 -5 -5 -5 -5 -4 -4 -4 -4 -3
7 6 5 4 4 5 4 4 2 1 1 -0 -1 -1 -2 -3 -4 -4 -4 -4 -5 -5 -5 -6 -6 -6 -5 -5 -5 -5 -5 -4
7 6 4 4 4 4 4 3 1 0 -0 -1 -1 -2 -3 -3 -4 -4 -4 -4 -5 -5 -5 -5 -6 -5 -5 -5 -6 -6 -6 -5
6 5 4 4 4 3 3 2 1 -0 -1 -1 -2 -3 -4 -4 -4 -5 -4 -5 -4 -4 -5 -6 -5 -6 -6 -5 -6 -6 -6 -6
5 5 3 3 3 2 1 0 0 -1 -1 -2 -3 -4 -4 -4 -4 -5 -5 -5 -5 -5 -6 -6 -6 -6 -6 -6 -6 -7 -6 -6
4 2 1 1 1 0 -0 -0 -1 -1 -2 -3 -4 -4 -4 -4 -4 -5 -5 -5 -5 -6 -6 -7 -7 -7 -7 -7 -7 -7 -8 -7
1 -0 -0 -1 -1 -1 -1 -1 -1 -3 -3 -3 -4 -4 -5 -5 -5 -5 -5 -5 -5 -6 -6 -7 -7 -7 -7 -8 -8 -8 -8 -8
1 0 -1 -2 -2 -2 -2 -2 -3 -3 -3 -4 -4 -5 -5 -5 -6 -6 -6 -6 -6 -6 -6 -7 -7 -8 -7 -8 -8 -8 -8 -8
3 1 -1 -3 -3 -3 -3 -4 -4 -3 -4 -4 -5 -5 -5 -6 -6 -6 -6 -6 -6 -6 -6 -7 -8 -8 -8 -8 -9 -9 -9 -9
4 2 -1 -2 -3 -4 -4 -4 -4 -4 -5 -5 -6 -6 -6 -6 -6 -6 -7 -7 -7 -7 -7 -7 -8 -8 -8 -8 -8 -9 -9 -9
4 3 1 -1 -2 -2 -3 -4 -4 -5 -5 -6 -6 -6 -6 -6 -6 -7 -7 -7 -7 -7 -8 -8 -8 -8 -8 -8 -8 -9 -9 -9
4 3 1 -1 -1 -2 -3 -4 -5 -5 -6 -6 -6 -6 -6 -7 -7 -7 -7 -7 -7 -8 -8 -8 -8 -8 -8 -8 -8 -8 -9 -9

GFSFLT1_925_temp_159.txt.gz
Temp
10 9 9 8 8 9 9 9 9 8 8 8 7 6 5 4 2 3 4 4 3 1 -0 -1 -1 -1 -0 -0 -0 0 1 1
9 8 7 7 7 8 8 8 8 8 6 5 4 4 2 2 2 3 2 2 1 -1 -1 -1 -2 -2 -2 -1 -1 -1 0 1
9 8 7 7 7 7 7 7 7 7 8 7 5 3 2 3 2 2 2 1 -1 -2 -2 -2 -3 -2 -2 -2 -1 -1 -0 -1
10 8 7 7 6 6 7 7 7 7 7 6 5 5 3 2 1 0 -0 -1 -3 -3 -3 -3 -3 -3 -3 -2 -2 -2 -2 -1
11 9 8 7 6 6 6 7 6 6 5 5 6 5 4 1 -1 -1 -2 -2 -3 -3 -3 -3 -3 -3 -3 -3 -3 -3 -3 -2
11 10 8 7 6 5 5 5 5 4 5 6 6 3 1 -1 -1 -1 -1 -2 -3 -3 -4 -3 -3 -3 -4 -4 -4 -3 -3 -3
11 10 8 7 5 4 4 4 3 4 5 5 3 1 0 1 -0 -0 -1 -2 -3 -4 -4 -4 -4 -4 -5 -4 -4 -4 -4 -4
11 9 7 5 4 3 2 2 2 3 3 2 0 1 2 1 -1 -1 -2 -2 -3 -4 -4 -4 -4 -5 -5 -5 -5 -4 -5 -5
11 9 8 5 4 3 3 2 1 1 1 -1 0 2 1 -1 -2 -3 -3 -4 -4 -4 -4 -5 -5 -5 -5 -5 -5 -4 -5 -5
11 10 8 6 4 3 3 2 1 1 -1 -0 1 1 -0 -1 -2 -3 -4 -4 -5 -4 -5 -5 -6 -6 -6 -6 -5 -5 -5 -5
10 9 7 6 4 3 2 1 1 -0 -1 0 -0 -2 -0 -1 -3 -3 -4 -4 -4 -4 -6 -6 -6 -6 -6 -6 -5 -6 -5 -5
9 8 6 5 4 2 1 1 0 -1 -1 0 -2 -1 -1 -2 -3 -3 -4 -4 -5 -5 -6 -6 -6 -6 -7 -7 -6 -7 -6 -6
8 4 5 3 1 1 1 0 -1 -1 0 -2 -2 -1 -2 -3 -3 -4 -4 -5 -6 -6 -6 -6 -7 -7 -7 -7 -7 -7 -7 -7
7 4 2 1 -0 -0 0 -0 0 0 -1 -2 -2 -2 -3 -3 -4 -5 -5 -5 -6 -6 -6 -7 -7 -7 -7 -8 -8 -8 -8 -8
6 5 4 1 -0 -1 -1 -1 -0 -0 -1 -2 -2 -3 -3 -4 -4 -5 -6 -6 -6 -6 -6 -7 -7 -7 -7 -8 -8 -8 -8 -8
6 5 4 2 0 -1 -2 -1 -1 -1 -2 -3 -3 -4 -4 -5 -6 -7 -6 -6 -7 -6 -6 -6 -6 -7 -8 -8 -8 -8 -8 -8
6 5 3 2 1 -1 -2 -3 -2 -2 -3 -3 -4 -5 -5 -6 -7 -7 -7 -7 -6 -6 -7 -7 -7 -7 -8 -8 -8 -9 -9 -8
7 5 4 3 1 -0 -1 -3 -4 -4 -4 -4 -5 -5 -6 -6 -6 -6 -6 -7 -7 -7 -7 -7 -8 -7 -8 -9 -8 -9 -9 -10
9 7 4 2 1 -1 -2 -3 -4 -5 -5 -5 -6 -6 -6 -6 -6 -6 -7 -7 -7 -8 -7 -8 -7 -8 -8 -9 -8 -9 -10 -10